Location: Unspecified
(0.0000°N, 0.0000°E)
Time: 05:22:15
(UTC+00:00)

Okean 3 - Pass Details

Date: 27 May 2019
Orbit: 577 x 601 km, 82.5° (Epoch: 19 June)

Event Time Altitude Azimuth Distance (km) Brightness Sun altitude
Exits shadow 20:06:44 17° 355° (N) 1,494 5.8 -29.9°
Drops below altitude 10° 20:07:42 10° 357° (N) 1,879 6.3 -30.1°
Sets 20:09:53 0° 360° (N) 2,774 7.2 -30.6°
